Weather History for Redmond, OR

Change the Weather History Date:

Thursday, February 7, 2013

  Actual Average Record
Temperature  
Mean Temperature 33 °F 34 °F  
Max Temperature 43 °F 45 °F 62 °F (1991)
Min Temperature 23 °F 24 °F -9 °F (1989)
Degree Days  
Heating Degree Days 32 31  
Month to date heating degree days 189 217  
Since 1 July heating degree days 3834 4057  
Cooling Degree Days 0 0  
Month to date cooling degree days 0 0  
Year to date cooling degree days 0 0  
Moisture  
Dew Point 24 °F    
Average Humidity 63    
Maximum Humidity 85    
Minimum Humidity 41    
Precipitation  
Precipitation T in 0.03 in 0.47 in (1979)
Month to date precipitation T 0.18  
Year to date precipitation 0.41 1.15  
Sea Level Pressure  
Sea Level Pressure 29.96 in    
Wind  
Wind Speed 3 mph (North)    
Max Wind Speed 13 mph    
Max Gust Speed 15 mph    
Visibility 9 miles    
Events Snow    
T = Trace of Precipitation, MM = Missing Value Source: NWS Daily Summary

Daily Weather History Graph

Daily Weather History Graph

Search for Another Location

Airport:

Trip Planner

Search our weather history database for the weather conditions in past years. The results will help you decide how hot, cold, wet, or windy it might be!

Date:

Astronomy

Feb. 07, 2013 Rise Set
Actual Time 7:14 AM PST 5:23 PM PST
Civil Twilight 6:44 AM PST 5:53 PM PST
Nautical Twilight 6:10 AM PST 6:27 PM PST
Astronomical Twilight 5:36 AM PST 7:01 PM PST
Moon 5:02 AM PST (2/7) 2:50 PM PST (2/7)
Length of Visible Light 11h 09m
Length of Day
10h 08m
Waning Crescent, 8% of the Moon is Illuminated
Feb 7
Waning Crescent
Feb 9
New
Feb 17
First Quarter
Feb 25
Full
Mar 4
Last Quarter

Hourly Weather History & Observations

Time (PST) Temp. Windchill Dew Point Humidity Pressure Visibility Wind Dir Wind Speed Gust Speed Precip Events Conditions
12:56 AM 39.0 °F 36.8 °F 26.1 °F 60% 29.88 in 10.0 mi SSW 3.5 mph - N/A   Overcast
1:56 AM 37.0 °F - 24.1 °F 59% 29.88 in 10.0 mi Calm Calm - N/A   Partly Cloudy
2:56 AM 37.0 °F 31.6 °F 25.0 °F 62% 29.89 in 10.0 mi West 6.9 mph - N/A   Overcast
3:56 AM 36.0 °F 33.3 °F 27.0 °F 70% 29.90 in 9.0 mi North 3.5 mph - 0.00 in   Overcast
4:56 AM 34.0 °F - 27.0 °F 75% 29.92 in 10.0 mi Calm Calm - N/A   Overcast
5:56 AM 33.1 °F - 28.0 °F 82% 29.94 in 4.0 mi Calm Calm - 0.00 in Snow Light Snow
6:10 AM 33.8 °F - 28.4 °F 81% 29.91 in 5.0 mi Calm Calm - 0.00 in Snow Light Snow
6:21 AM 32.0 °F - 28.4 °F 87% 29.90 in 2.0 mi Calm Calm - 0.00 in Snow Light Snow
6:35 AM 32.0 °F - 28.4 °F 87% 29.90 in 5.0 mi Calm Calm - 0.00 in Snow Light Snow
6:56 AM 30.9 °F 26.2 °F 28.0 °F 89% 29.95 in 10.0 mi SE 4.6 mph - 0.00 in   Overcast
7:56 AM 32.0 °F - 28.0 °F 85% 29.96 in 10.0 mi Calm Calm - N/A   Overcast
8:03 AM 33.8 °F - 28.4 °F 81% 29.92 in 10.0 mi Calm Calm - N/A   Overcast
8:19 AM 33.8 °F - 28.4 °F 81% 29.93 in 10.0 mi Calm Calm - N/A   Overcast
8:56 AM 33.1 °F 30.0 °F 28.0 °F 82% 29.97 in 10.0 mi NNE 3.5 mph - N/A   Overcast
9:56 AM 35.1 °F - 26.1 °F 70% 29.98 in 10.0 mi Calm Calm - N/A   Mostly Cloudy
10:56 AM 37.0 °F - 23.0 °F 57% 29.98 in 10.0 mi Calm Calm - N/A   Clear
11:56 AM 39.0 °F 35.7 °F 24.1 °F 55% 29.95 in 10.0 mi ESE 4.6 mph - N/A   Clear
12:56 PM 39.0 °F - 21.9 °F 50% 29.94 in 10.0 mi Calm Calm - N/A   Clear
1:56 PM 41.0 °F - 19.9 °F 43% 29.93 in 10.0 mi Calm Calm - N/A   Overcast
2:56 PM 39.0 °F 35.7 °F 23.0 °F 53% 29.94 in 10.0 mi NE 4.6 mph - N/A   Scattered Clouds
3:56 PM 39.0 °F 34.0 °F 24.1 °F 55% 29.94 in 10.0 mi NNE 6.9 mph - N/A   Clear
4:56 PM 37.0 °F 34.5 °F 21.0 °F 52% 29.96 in 10.0 mi NNE 3.5 mph - N/A   Clear
5:56 PM 33.1 °F 28.7 °F 19.9 °F 59% 29.98 in 10.0 mi NNW 4.6 mph - N/A   Clear
6:56 PM 30.9 °F 26.2 °F 19.9 °F 64% 30.00 in 10.0 mi NW 4.6 mph - N/A   Clear
7:56 PM 28.0 °F 24.2 °F 19.9 °F 72% 30.02 in 10.0 mi West 3.5 mph - N/A   Clear
8:56 PM 25.0 °F - 19.9 °F 81% 30.04 in 10.0 mi Calm Calm - N/A   Clear
9:56 PM 27.0 °F - 19.9 °F 75% 30.05 in 10.0 mi Calm Calm - N/A   Clear
10:56 PM 26.1 °F 19.4 °F 21.0 °F 81% 30.06 in 10.0 mi WNW 5.8 mph - N/A   Clear
11:56 PM 24.1 °F - 19.9 °F 84% 30.08 in 10.0 mi Calm Calm - N/A   Clear